Flag for Puerto Rico Weather past 2 weeks in San Juan, Puerto Rico

Now
78 °F

Passing clouds.


Feels Like: 81 °F
Forecast: 77 / 83 °F
Wind: 7 mph from East

Location: Luis Munoz Marin

Current Time: Dec 21, 2014 at 1:01:38 AM

Latest Report: Dec 20, 2014 at 11:56 PM


Visibility: 10 mi

Pressure: 30.05 "Hg

Humidity: 82%

Dew point: 72 °F

Location of San JuanLocation

Historic Weather in San Juan — Graph

°F

San Juan temperature yesterday

Maximum temperature yesterday: 85 °F (at 12:56 PM)
Minimum temperature yesterday: 73 °F (at 6:56 AM)
Average temperature yesterday: 79 °F

Past Weeks' High & Low Weather Summary

 TemperatureHumidityPressure
High88 °F (Dec 14, 11:56 AM)100% (Dec 15, 5:56 AM)30.08 "Hg (Dec 15, 5:56 AM)
Low71 °F (Dec 8, 5:56 AM)55% (Dec 8, 10:56 AM)29.84 "Hg (Dec 14, 2:56 PM)
Average79 °F78%29.96 "Hg
* Reported Dec 5 11:56 PM — Dec 20 11:56 PM, San Juan, Weather by CustomWeather, © 2014

Note: Actual official high and low records may vary slightly from our data, if they occured in-between our weather recording intervals... More about our weather records

Advertising

San Juan weather history for previous 24 hours

 ConditionsComfort  
Time TempWeatherWind HumidityBarometerVisibility
11:56 PM
Dec 20
78 °FPassing clouds.7 mph82%30.05 "Hg10 mi
10:56 PM78 °FPassing clouds.7 mph82%30.05 "Hg10 mi
9:56 PM79 °FPassing clouds.No wind79%30.05 "Hg10 mi
8:56 PM79 °FPassing clouds.7 mph79%30.05 "Hg10 mi
7:56 PM79 °FPassing clouds.5 mph79%30.03 "Hg10 mi
6:56 PM80 °FPassing clouds.6 mph76%30.01 "Hg10 mi
5:56 PM79 °FScattered clouds.6 mph79%29.99 "Hg10 mi
4:56 PM81 °FScattered clouds.14 mph74%29.98 "Hg10 mi
3:56 PM83 °FScattered clouds.14 mph70%29.97 "Hg10 mi
2:56 PM84 °FScattered clouds.13 mph65%29.97 "Hg10 mi
1:56 PM84 °FScattered clouds.15 mph65%29.98 "Hg10 mi
12:56 PM85 °FScattered clouds.16 mph63%30.01 "Hg10 mi
11:56 AM84 °FScattered clouds.14 mph65%30.04 "Hg10 mi
10:56 AM83 °FScattered clouds.14 mph68%30.05 "Hg10 mi
9:56 AM81 °FScattered clouds.10 mph72%30.06 "Hg10 mi
8:56 AM79 °FScattered clouds.6 mph74%30.04 "Hg10 mi
7:56 AM76 °FScattered clouds.No wind82%30.01 "Hg10 mi
6:56 AM73 °FPassing clouds.No wind88%29.99 "Hg10 mi
5:56 AM74 °FPassing clouds.No wind85%29.97 "Hg10 mi
4:56 AM74 °FPassing clouds.No wind85%29.96 "Hg10 mi
3:56 AM74 °FPassing clouds.No wind85%29.96 "Hg10 mi
2:56 AM75 °FPassing clouds.No wind82%29.97 "Hg10 mi
1:56 AM74 °FPassing clouds.No wind85%29.98 "Hg10 mi
Weather by CustomWeather, © 2014

See weather overviewHow to use our weather pages